When you browse on this site, cookies collect data to enhance your experience and personalize the content and advertising you see.
Visit our Privacy Policy to learn more. By continuing to use the site, you agree to this use of cookies and data.
  • In Hungary
  • List of Countries
  • For 7 days
  • Water Temperature
  • Satellite Maps
  • Weather Map
  • News
  • Weather Widgets
  • user-avatar
    Login

    Hourly Weather Adelfia

    Today, 11 December, Tuesday

    Time Temperature Precipitation Wind Pressure Humidity
    00:00 +9°C° 0.3 mm 5 mps 746 mmHg 59%
    01:00 +9°C° 0 mm 7 mps 746 mmHg 67%
    02:00 +9°C° 0.1 mm 7 mps 746 mmHg 65%
    03:00 +8°C° 0.1 mm 6 mps 747 mmHg 64%
    04:00 +8°C° 0.1 mm 6 mps 747 mmHg 63%
    05:00 +8°C° 0 mm 6 mps 747 mmHg 61%
    06:00 +8°C° 0 mm 6 mps 747 mmHg 59%
    07:00 +8°C° 0 mm 6 mps 748 mmHg 57%
    08:00 +9°C° 0 mm 6 mps 748 mmHg 54%
    09:00 +9°C° 0 mm 6 mps 748 mmHg 50%
    10:00 +10°C° 0 mm 6 mps 749 mmHg 46%
    11:00 +10°C° 0.1 mm 5 mps 749 mmHg 44%
    12:00 +10°C° 0.1 mm 5 mps 749 mmHg 42%
    13:00 +10°C° 0.1 mm 5 mps 749 mmHg 40%
    14:00 +11°C° 0.1 mm 4 mps 749 mmHg 44%
    15:00 +10°C° 0.1 mm 4 mps 749 mmHg 47%
    16:00 +10°C° 0.1 mm 4 mps 749 mmHg 50%
    17:00 +8°C° 0.2 mm 4 mps 749 mmHg 54%
    18:00 +8°C° 0.2 mm 4 mps 750 mmHg 59%
    19:00 +8°C° 0.2 mm 3 mps 750 mmHg 63%
    20:00 +8°C° 0.2 mm 3 mps 750 mmHg 65%
    21:00 +7°C° 0.2 mm 3 mps 750 mmHg 67%
    22:00 +7°C° 0.2 mm 3 mps 750 mmHg 69%
    23:00 +7°C° 0.2 mm 3 mps 751 mmHg 70%

    Tomorrow, 12 December, Wednesday

    Time Temperature Precipitation Wind Pressure Humidity
    00:00 +7°C° 0.2 mm 3 mps 751 mmHg 71%
    01:00 +5°C° 0.2 mm 3 mps 751 mmHg 72%
    02:00 +5°C° 0.2 mm 3 mps 751 mmHg 72%
    03:00 +5°C° 0.2 mm 3 mps 751 mmHg 71%
    04:00 +5°C° 0.2 mm 3 mps 751 mmHg 70%
    05:00 +5°C° 0.1 mm 3 mps 751 mmHg 69%
    06:00 +5°C° 0.1 mm 3 mps 751 mmHg 68%
    07:00 +4°C° 0.1 mm 3 mps 751 mmHg 67%
    08:00 +7°C° 0 mm 3 mps 751 mmHg 63%
    09:00 +8°C° 0 mm 3 mps 752 mmHg 58%
    10:00 +9°C° 0 mm 2 mps 752 mmHg 53%
    11:00 +10°C° 0 mm 2 mps 752 mmHg 50%
    12:00 +10°C° 0 mm 2 mps 752 mmHg 47%
    13:00 +12°C° 0 mm 1 mps 751 mmHg 44%
    14:00 +11°C° 0 mm 1 mps 751 mmHg 45%
    15:00 +11°C° 0 mm 1 mps 751 mmHg 47%
    16:00 +10°C° 0 mm 1 mps 751 mmHg 49%
    17:00 +10°C° 0 mm 1 mps 751 mmHg 51%
    18:00 +10°C° 0 mm 1 mps 751 mmHg 52%
    19:00 +9°C° 0 mm 1 mps 751 mmHg 54%
    20:00 +9°C° 0 mm 1 mps 751 mmHg 55%
    21:00 +9°C° 0 mm 1 mps 751 mmHg 56%
    22:00 +8°C° 0 mm 2 mps 751 mmHg 57%
    23:00 +8°C° 0 mm 2 mps 750 mmHg 58%

    Day after tomorrow, 13 December, Thursday

    Time Temperature Precipitation Wind Pressure Humidity
    00:00 +8°C° 0 mm 2 mps 750 mmHg 59%
    01:00 +8°C° 0 mm 3 mps 750 mmHg 60%
    02:00 +8°C° 0 mm 3 mps 749 mmHg 63%
    03:00 +8°C° 0 mm 3 mps 749 mmHg 66%
    04:00 +8°C° 0 mm 3 mps 748 mmHg 69%
    05:00 +7°C° 0.1 mm 4 mps 748 mmHg 73%
    06:00 +7°C° 0.1 mm 4 mps 748 mmHg 77%
    07:00 +7°C° 0.1 mm 4 mps 748 mmHg 81%
    08:00 +7°C° 0.1 mm 5 mps 748 mmHg 78%
    09:00 +8°C° 0.1 mm 5 mps 747 mmHg 75%
    10:00 +8°C° 0.1 mm 6 mps 747 mmHg 71%
    11:00 +9°C° 0.1 mm 6 mps 747 mmHg 72%
    12:00 +9°C° 0.1 mm 6 mps 747 mmHg 73%
    13:00 +9°C° 0.1 mm 6 mps 746 mmHg 74%
    14:00 +9°C° 0 mm 6 mps 746 mmHg 75%
    15:00 +9°C° 0 mm 6 mps 746 mmHg 75%
    16:00 +9°C° 0 mm 6 mps 746 mmHg 76%
    17:00 +8°C° 0 mm 6 mps 746 mmHg 77%
    18:00 +8°C° 0 mm 6 mps 746 mmHg 78%
    19:00 +8°C° 0 mm 6 mps 746 mmHg 79%
    20:00 +8°C° 0 mm 6 mps 746 mmHg 80%
    21:00 +8°C° 0 mm 5 mps 746 mmHg 81%
    22:00 +8°C° 0 mm 5 mps 746 mmHg 82%
    23:00 +8°C° 0 mm 5 mps 746 mmHg 83%

    14 December, Friday

    Time Temperature Precipitation Wind Pressure Humidity
    00:00 +9°C° 0 mm 5 mps 746 mmHg 85%
    01:00 +10°C° 0 mm 4 mps 746 mmHg 86%
    02:00 +10°C° 0.2 mm 4 mps 745 mmHg 87%
    03:00 +10°C° 0.2 mm 4 mps 745 mmHg 88%
    04:00 +10°C° 0.2 mm 3 mps 745 mmHg 89%
    05:00 +10°C° 0.2 mm 3 mps 745 mmHg 89%
    06:00 +10°C° 0.2 mm 3 mps 745 mmHg 90%
    07:00 +10°C° 0.2 mm 3 mps 745 mmHg 90%
    08:00 +10°C° 0.1 mm 3 mps 745 mmHg 86%
    09:00 +11°C° 0.1 mm 3 mps 745 mmHg 81%
    10:00 +13°C° 0.1 mm 2 mps 745 mmHg 77%
    11:00 +14°C° 0 mm 2 mps 745 mmHg 73%
    12:00 +15°C° 0 mm 2 mps 745 mmHg 68%
    13:00 +15°C° 0 mm 2 mps 745 mmHg 63%
    14:00 +15°C° 0 mm 2 mps 744 mmHg 67%
    15:00 +15°C° 0 mm 2 mps 744 mmHg 71%
    16:00 +14°C° 0 mm 1 mps 744 mmHg 75%
    17:00 +14°C° 0.2 mm 2 mps 744 mmHg 78%
    18:00 +14°C° 0.2 mm 2 mps 744 mmHg 82%
    19:00 +13°C° 0.2 mm 2 mps 744 mmHg 85%
    20:00 +12°C° 0.5 mm 3 mps 744 mmHg 86%
    21:00 +12°C° 0.5 mm 3 mps 745 mmHg 88%
    22:00 +12°C° 0.5 mm 3 mps 745 mmHg 89%
    23:00 +11°C° 0.3 mm 3 mps 744 mmHg 89%

    15 December, Saturday

    Time Temperature Precipitation Wind Pressure Humidity
    00:00 +11°C° 0.3 mm 4 mps 744 mmHg 89%
    01:00 +11°C° 0.3 mm 4 mps 744 mmHg 89%
    02:00 +11°C° 0.3 mm 4 mps 744 mmHg 88%
    03:00 +11°C° 0.3 mm 4 mps 744 mmHg 87%
    04:00 +10°C° 0.3 mm 4 mps 744 mmHg 87%
    05:00 +9°C° 0.4 mm 5 mps 744 mmHg 87%
    06:00 +9°C° 0.4 mm 5 mps 744 mmHg 87%
    07:00 +9°C° 0.4 mm 6 mps 744 mmHg 87%
    08:00 +9°C° 0.6 mm 7 mps 744 mmHg 85%
    09:00 +9°C° 0.6 mm 8 mps 745 mmHg 82%
    10:00 +8°C° 0.6 mm 9 mps 745 mmHg 79%
    11:00 +10°C° 0.2 mm 9 mps 745 mmHg 76%
    12:00 +9°C° 0.2 mm 10 mps 746 mmHg 72%
    13:00 +9°C° 0.2 mm 10 mps 746 mmHg 69%
    14:00 +8°C° 0 mm 10 mps 746 mmHg 69%
    15:00 +8°C° 0 mm 10 mps 746 mmHg 68%
    16:00 +8°C° 0 mm 10 mps 746 mmHg 68%
    17:00 +7°C° 0 mm 10 mps 747 mmHg 68%
    18:00 +7°C° 0 mm 10 mps 747 mmHg 68%
    19:00 +7°C° 0 mm 10 mps 748 mmHg 68%
    20:00 +7°C° 0 mm 10 mps 748 mmHg 68%
    21:00 +6°C° 0 mm 10 mps 748 mmHg 68%
    22:00 +6°C° 0 mm 9 mps 749 mmHg 68%
    23:00 +6°C° 0 mm 9 mps 749 mmHg 69%

    16 December, Sunday

    Time Temperature Precipitation Wind Pressure Humidity
    00:00 +6°C° 0 mm 9 mps 749 mmHg 69%
    01:00 +5°C° 0 mm 9 mps 749 mmHg 70%
    02:00 +5°C° 0 mm 9 mps 749 mmHg 70%
    03:00 +5°C° 0 mm 9 mps 749 mmHg 70%
    04:00 +5°C° 0 mm 10 mps 749 mmHg 70%
    05:00 +5°C° 0 mm 9 mps 750 mmHg 70%
    06:00 +5°C° 0 mm 9 mps 750 mmHg 70%
    07:00 +5°C° 0 mm 9 mps 750 mmHg 70%
    08:00 +6°C° 0 mm 9 mps 751 mmHg 67%
    09:00 +6°C° 0 mm 10 mps 751 mmHg 65%
    10:00 +7°C° 0 mm 10 mps 752 mmHg 62%
    11:00 +7°C° 0 mm 10 mps 752 mmHg 61%
    12:00 +8°C° 0 mm 10 mps 752 mmHg 60%
    13:00 +8°C° 0 mm 10 mps 752 mmHg 59%
    14:00 +8°C° 0 mm 9 mps 752 mmHg 61%
    15:00 +9°C° 0 mm 8 mps 752 mmHg 62%
    16:00 +8°C° 0 mm 7 mps 752 mmHg 63%
    17:00 +8°C° 0 mm 7 mps 753 mmHg 65%
    18:00 +8°C° 0 mm 6 mps 753 mmHg 67%
    19:00 +7°C° 0 mm 6 mps 753 mmHg 69%
    20:00 +7°C° 0 mm 6 mps 754 mmHg 70%
    21:00 +7°C° 0 mm 5 mps 754 mmHg 70%
    22:00 +7°C° 0 mm 5 mps 754 mmHg 71%
    23:00 +6°C° 0 mm 4 mps 754 mmHg 71%
    Show more